User: anonymous   Login
Location: Kopernik Observatory
(42.0014°N, 76.0372°W)
Time: 15:31:08
(UTC-05:00)
Language:

CENTAUR R/B - Orbit

View from above orbital plane
View from above orbital plane
View from above satellite
View from above satellite

Ground track
Ground track

The orbit data is extracted from the following two-line orbital elements,

1 26906U 01040B   16042.19818392 0.00000100  00000-0  13050-3 0    08
2 26906  63.4615 154.1032 0305000 343.5703  16.4297 13.43979905    08
Epoch (UTC): 11 February 2016 04:45:23
Eccentricity: 0.0305000
inclination: 63.4615°
perigee height: 866 km
apogee height: 1322 km
right ascension of ascending node: 154.1032°
argument of perigee: 343.5703°
revolutions per day: 13.43979905
mean anomaly at epoch: 16.4297°
orbit number at epoch: 0

The dashed part of the orbit path shows where the satellite is in the earth's shadow,  

DLR